Date String (YYYY-MM-DD hh:mm:ss) UTC,Instrument flags,absolute air pressure of the measurement (hPa),sample flow rate (lpm),inlet stack bypass flow (lpm),air temperature of the measurement (°C),ambient temperature measured by the external sensor (°C),aerosol sample conditioner tube jacket temperature (°C),OPC LED temperature (°C),internal box temperature (°C),relative humidity of the measurement (%),span deviation,mass concentration of particles derived from Lorenz-Mie calculation of OPC scattering (μg/m³),mass concentration of particles derived from Lorenz-Mie calculation of OPC scattering (μg/m³),mass concentration of particles derived from Lorenz-Mie calculation of OPC scattering (μg/m³)
DateTimeUTC,F1_M11,P_M11,Q1_M11,Q2_M11,T1_M11,T2_M11,T3_M11,T4_M11,T5_M11,U1_M11,ZSPAN_M11,X2_M11,X0_M11,X1_M11
2023-06-07 11:00:00,SystemResetWarning,0829.5,5.00,000.00,029.9,028.1,000.0,038.5,031.3,21.1,0000.0,0003.40,0005.97,0003.04
2023-06-07 11:01:00,SystemResetWarning,0829.4,5.00,000.00,029.9,028.1,000.0,038.5,031.3,21.1,0000.0,0003.41,0005.96,0003.06
2023-06-07 11:02:00,SystemResetWarning,0829.5,5.01,000.00,029.9,028.1,000.0,038.5,031.3,21.1,0000.0,0003.44,0005.96,0003.07
2023-06-07 11:03:00,SystemResetWarning,0829.4,5.00,000.00,029.8,028.1,000.0,038.5,031.3,21.1,0000.0,0003.42,0005.75,0003.04
2023-06-07 11:04:00,SystemResetWarning,0829.4,5.00,000.00,029.8,028.1,000.0,038.5,031.3,21.1,0000.0,0003.42,0005.69,0003.02
2023-06-07 11:05:00,SystemResetWarning,0829.5,5.00,000.00,029.8,028.1,000.0,038.5,031.3,21.0,0000.0,0003.43,0005.71,0003.00
2023-06-07 11:06:00,SystemResetWarning,0829.4,5.01,000.00,029.8,028.0,000.0,038.5,031.3,20.9,0000.0,0003.42,0005.65,0002.99
2023-06-07 11:07:00,SystemResetWarning,0829.4,4.99,000.00,029.8,028.0,000.0,038.5,031.3,20.9,0000.0,0003.42,0005.77,0002.98
2023-06-07 11:08:00,SystemResetWarning,0829.4,4.99,000.00,029.8,028.0,000.0,038.4,031.3,20.9,0000.0,0003.39,0005.73,0002.95
2023-06-07 11:09:00,SystemResetWarning,0829.4,4.99,000.00,029.8,028.0,000.0,038.4,031.3,21.0,0000.0,0003.40,0005.63,0002.96
2023-06-07 11:10:00,SystemResetWarning,0829.5,5.01,000.00,029.8,028.0,000.0,038.4,031.2,20.9,0000.0,0003.39,0005.29,0002.96
2023-06-07 11:11:00,SystemResetWarning,0829.5,5.00,000.00,029.8,028.0,000.0,038.4,031.2,21.0,0000.0,0003.40,0005.23,0002.96
2023-06-07 11:12:00,SystemResetWarning,0829.5,5.00,000.00,029.8,028.0,000.0,038.4,031.2,21.0,0000.0,0003.40,0005.16,0002.95
2023-06-07 11:13:00,SystemResetWarning,0829.6,5.00,000.00,029.8,028.0,000.0,038.4,031.2,21.0,0000.0,0003.40,0005.14,0002.95
2023-06-07 11:14:00,SystemResetWarning,0829.5,5.01,000.00,029.8,028.0,000.0,038.4,031.2,20.9,0000.0,0003.40,0005.12,0002.95
2023-06-07 11:15:00,SystemResetWarning,0829.5,5.00,000.00,029.8,028.0,000.0,038.4,031.2,20.9,0000.0,0003.37,0005.05,0002.94
2023-06-07 11:16:00,SystemResetWarning,0829.6,5.00,000.00,029.8,028.0,000.0,038.4,031.2,20.9,0000.0,0003.35,0004.95,0002.93
2023-06-07 11:17:00,SystemResetWarning,0829.6,5.00,000.00,029.8,028.0,000.0,038.4,031.2,20.8,0000.0,0003.35,0004.96,0002.93
2023-06-07 11:18:00,SystemResetWarning,0829.6,5.00,000.00,029.8,028.0,000.0,038.4,031.2,20.9,0000.0,0003.36,0004.89,0002.93
2023-06-07 11:19:00,SystemResetWarning,0829.6,5.00,000.00,029.7,028.0,000.0,038.4,031.2,20.9,0000.0,0003.36,0005.41,0002.93
2023-06-07 11:20:00,SystemResetWarning,0829.6,5.00,000.00,029.8,028.0,000.0,038.4,031.2,20.9,0000.0,0003.35,0005.37,0002.93
2023-06-07 11:21:00,SystemResetWarning,0829.6,5.00,000.00,029.7,028.0,000.0,038.4,031.2,20.9,0000.0,0003.36,0005.42,0002.92
2023-06-07 11:22:00,SystemResetWarning,0829.6,5.00,000.00,029.8,027.9,000.0,038.4,031.2,20.9,0000.0,0003.36,0005.53,0002.93
2023-06-07 11:23:00,SystemResetWarning,0829.7,5.00,000.00,029.7,027.9,000.0,038.4,031.1,20.8,0000.0,0003.36,0005.66,0002.93
2023-06-07 11:24:00,SystemResetWarning,0829.7,5.00,000.00,029.7,027.9,000.0,038.4,031.1,20.8,0000.0,0003.35,0005.74,0002.92
2023-06-07 11:25:00,SystemResetWarning,0829.7,5.00,000.00,029.7,027.9,000.0,038.4,031.1,20.9,0000.0,0003.38,0005.97,0002.94
2023-06-07 11:26:00,SystemResetWarning,0829.7,5.00,000.00,029.7,027.9,000.0,038.4,031.1,20.9,0000.0,0003.37,0006.01,0002.94
2023-06-07 11:27:00,SystemResetWarning,0829.7,5.00,000.00,029.7,027.9,000.0,038.4,031.1,21.0,0000.0,0003.39,0006.27,0002.95
2023-06-07 11:28:00,SystemResetWarning,0829.7,5.00,000.00,029.7,027.9,000.0,038.4,031.2,21.0,0000.0,0003.40,0006.33,0002.95
2023-06-07 11:29:00,SystemResetWarning,0829.7,5.00,000.00,029.7,027.9,000.0,038.3,031.1,21.1,0000.0,0003.40,0006.26,0002.94
2023-06-07 11:30:00,SystemResetWarning,0829.7,5.00,000.00,029.7,027.9,000.0,038.3,031.1,21.3,0000.0,0003.41,0005.75,0002.95
2023-06-07 11:31:00,SystemResetWarning,0829.7,5.00,000.00,029.7,027.9,000.0,038.3,031.1,21.2,0000.0,0003.42,0005.72,0002.96
2023-06-07 11:32:00,SystemResetWarning,0829.7,5.00,000.00,029.7,027.9,000.0,038.3,031.1,21.2,0000.0,0003.41,0005.71,0002.95
2023-06-07 11:33:00,SystemResetWarning,0829.7,5.00,000.00,029.7,027.9,000.0,038.3,031.1,21.0,0000.0,0003.41,0005.59,0002.93
2023-06-07 11:34:00,SystemResetWarning,0829.7,5.00,000.00,029.7,027.9,000.0,038.3,031.2,21.0,0000.0,0003.41,0005.48,0002.94
2023-06-07 11:35:00,SystemResetWarning,0829.7,4.99,000.00,029.7,027.9,000.0,038.3,031.1,21.0,0000.0,0003.40,0005.55,0002.97
2023-06-07 11:36:00,SystemResetWarning,0829.7,5.00,000.00,029.7,027.9,000.0,038.3,031.1,21.0,0000.0,0003.42,0006.33,0002.99
2023-06-07 11:37:00,SystemResetWarning,0829.7,4.99,000.00,029.7,027.9,000.0,038.3,031.1,21.0,0000.0,0003.48,0006.76,0003.03
2023-06-07 11:38:00,SystemResetWarning,0829.7,4.99,000.00,029.7,027.9,000.0,038.3,031.1,21.0,0000.0,0003.50,0006.74,0003.04
2023-06-07 11:39:00,SystemResetWarning,0829.7,5.00,000.00,029.7,027.9,000.0,038.3,031.2,21.0,0000.0,0003.52,0007.13,0003.07
2023-06-07 11:40:00,SystemResetWarning,0829.7,5.00,000.00,029.7,027.9,000.0,038.3,031.1,21.2,0000.0,0003.54,0007.50,0003.09
2023-06-07 11:41:00,SystemResetWarning,0829.7,5.00,000.00,029.7,027.9,000.0,038.3,031.1,21.1,0000.0,0003.54,0007.51,0003.10
2023-06-07 11:42:00,SystemResetWarning,0829.6,5.00,000.00,029.7,027.9,000.0,038.3,031.1,21.2,0000.0,0003.54,0007.86,0003.11
2023-06-07 11:43:00,SystemResetWarning,0829.7,5.01,000.00,029.7,027.9,000.0,038.3,031.1,21.4,0000.0,0003.55,0008.17,0003.12
2023-06-07 11:44:00,SystemResetWarning,0829.7,4.99,000.00,029.7,027.9,000.0,038.3,031.1,21.4,0000.0,0003.56,0008.19,0003.14
2023-06-07 11:45:00,SystemResetWarning,0829.6,4.99,000.00,029.7,027.9,000.0,038.3,031.1,21.5,0000.0,0003.57,0008.20,0003.15
2023-06-07 11:46:00,SystemResetWarning,0829.7,5.00,000.00,029.7,027.9,000.0,038.3,031.1,21.4,0000.0,0003.56,0008.15,0003.15
2023-06-07 11:47:00,SystemResetWarning,0829.7,5.00,000.00,029.7,027.9,000.0,038.3,031.1,21.4,0000.0,0003.56,0007.68,0003.15
2023-06-07 11:48:00,SystemResetWarning,0829.7,5.01,000.00,029.7,027.9,000.0,038.3,031.1,21.4,0000.0,0003.52,0007.44,0003.15
2023-06-07 11:49:00,SystemResetWarning,0829.7,5.00,000.00,029.7,027.9,000.0,038.3,031.1,21.3,0000.0,0003.51,0007.34,0003.15
2023-06-07 11:50:00,SystemResetWarning,0829.7,4.99,000.00,029.7,027.9,000.0,038.3,031.1,21.5,0000.0,0003.50,0007.06,0003.16
2023-06-07 11:51:00,SystemResetWarning,0829.7,4.99,000.00,029.7,027.9,000.0,038.3,031.1,21.4,0000.0,0003.48,0006.49,0003.16
2023-06-07 11:52:00,SystemResetWarning,0829.7,4.99,000.00,029.7,027.9,000.0,038.3,031.1,21.4,0000.0,0003.47,0006.45,0003.17
2023-06-07 11:53:00,SystemResetWarning,0829.7,4.99,000.00,029.7,027.9,000.0,038.3,031.1,21.4,0000.0,0003.48,0006.01,0003.17
2023-06-07 11:54:00,SystemResetWarning,0829.7,5.00,000.00,029.7,027.9,000.0,038.3,031.1,21.5,0000.0,0003.48,0005.48,0003.17
2023-06-07 11:55:00,SystemResetWarning,0829.7,5.00,000.00,029.7,027.9,000.0,038.3,031.1,21.4,0000.0,0003.52,0005.67,0003.18
2023-06-07 11:56:00,SystemResetWarning,0829.7,5.01,000.00,029.7,027.9,000.0,038.3,031.1,21.4,0000.0,0003.52,0005.65,0003.19
2023-06-07 11:57:00,SystemResetWarning,0829.7,5.00,000.00,029.7,027.9,000.0,038.3,031.1,21.4,0000.0,0003.53,0005.76,0003.19
2023-06-07 11:58:00,SystemResetWarning,0829.8,4.99,000.00,029.7,027.9,000.0,038.3,031.1,21.4,0000.0,0003.52,0005.82,0003.19
2023-06-07 11:59:00,SystemResetWarning,0829.8,4.99,000.00,029.7,027.9,000.0,038.3,031.1,21.2,0000.0,0003.52,0006.04,0003.19
